Flag for U.S.A. Weather past 2 weeks in Coeur d'Alene, Idaho, U.S.A.

Now
59 °F

Sunny.


Feels Like: 57 °F
Forecast: 53 / 81 °F
Wind: 12 mph from Northeast

Location: Coeur d'Alene Weather Reporting System

Current Time: May 29, 2015 at 8:32:47 AM

Latest Report: May 29, 2015 at 7:55 AM


Visibility: 10 mi

Pressure: 30.08 "Hg

Humidity: 77%

Dew point: 52 °F

Location of Coeur d'AleneLocation

Historic Weather in Coeur d'Alene — Graph

°F

Coeur d'Alene temperature yesterday

Maximum temperature yesterday: 79 °F (at 2:55 PM)
Minimum temperature yesterday: 54 °F (at 4:55 AM)
Average temperature yesterday: 64 °F

Past Weeks' High & Low Weather Summary

 TemperatureHumidityPressure
High82 °F (May 21, 3:15 PM)100% (May 18, 3:35 AM)30.15 "Hg (May 18, 3:35 AM)
Low43 °F (May 27, 5:15 AM)11% (May 20, 8:15 AM)29.65 "Hg (May 15, 3:15 PM)
Average62 °F57%29.94 "Hg
* Reported May 14 7:15 AM — May 29 7:35 AM, Coeur d'Alene, Weather by CustomWeather, © 2015

Note: Actual official high and low records may vary slightly from our data, if they occured in-between our weather recording intervals... More about our weather records

Advertising

Coeur d'Alene weather history for previous 24 hours

 ConditionsComfort  
Time TempWeatherWind HumidityBarometerVisibility
7:35 AM
Fri, May 29
59 °FSunny.14 mph77%30.09 "Hg10 mi
7:15 AM57 °FSunny.12 mph88%30.09 "Hg10 mi
6:55 AM57 °FSunny.12 mph82%30.09 "Hg10 mi
6:35 AM55 °FSunny.10 mph88%30.09 "Hg10 mi
6:15 AM55 °FSunny.13 mph88%30.09 "Hg10 mi
5:55 AM54 °FSunny.8 mph82%30.09 "Hg10 mi
5:15 AM52 °FClear.7 mph88%30.08 "Hg10 mi
4:55 AM52 °FClear.9 mph88%30.08 "Hg10 mi
4:35 AM54 °FClear.9 mph82%30.08 "Hg10 mi
4:15 AM54 °FClear.9 mph88%30.08 "Hg10 mi
3:55 AM54 °FClear.8 mph88%30.08 "Hg10 mi
3:35 AM54 °FClear.7 mph88%30.08 "Hg10 mi
3:15 AM54 °FClear.7 mph88%30.08 "Hg10 mi
2:55 AM54 °FClear.8 mph88%30.08 "Hg10 mi
2:35 AM54 °FClear.7 mph88%30.09 "Hg10 mi
2:15 AM54 °FClear.8 mph88%30.09 "Hg10 mi
1:55 AM54 °FClear.9 mph88%30.09 "Hg10 mi
1:35 AM54 °FClear.7 mph88%30.09 "Hg10 mi
1:15 AM54 °FClear.7 mph88%30.10 "Hg10 mi
12:55 AM54 °FClear.8 mph94%30.10 "Hg10 mi
12:35 AM54 °FClear.7 mph94%30.10 "Hg10 mi
12:15 AM55 °FClear.7 mph88%30.11 "Hg10 mi
11:55 PM
Thu, May 28
55 °FClear.10 mph88%30.11 "Hg10 mi
11:35 PM55 °FClear.12 mph88%30.11 "Hg10 mi
11:15 PM55 °FClear.10 mph88%30.11 "Hg10 mi
10:55 PM57 °FClear.8 mph82%30.12 "Hg10 mi
10:35 PM57 °FClear.9 mph88%30.11 "Hg10 mi
10:15 PM57 °FClear.8 mph88%30.12 "Hg10 mi
9:55 PM57 °FClear.9 mph88%30.12 "Hg10 mi
9:35 PM57 °FClear.7 mph88%30.12 "Hg10 mi
9:15 PM57 °FSunny.5 mph82%30.12 "Hg10 mi
8:35 PM61 °FPartly sunny.8 mph77%30.11 "Hg10 mi
8:15 PM61 °FBroken clouds.5 mph72%30.11 "Hg10 mi
7:55 PM63 °FMostly cloudy.No wind68%30.13 "Hg10 mi
7:35 PM63 °FThundershowers. More clouds than sun.No wind59%30.12 "Hg10 mi
7:15 PM64 °FThunderstorms. Overcast.7 mph56%30.09 "Hg9 mi
6:55 PM64 °FScattered clouds.15 mph52%30.07 "Hg10 mi
6:35 PM68 °FThundershowers. Sunny.20 mph46%30.06 "Hg10 mi
6:15 PM70 °FThundershowers. Passing clouds.23 mph46%30.06 "Hg10 mi
5:55 PM77 °FThundershowers. Passing clouds.22 mph39%30.05 "Hg10 mi
5:35 PM79 °FThunderstorms. Sunny.8 mph34%30.04 "Hg10 mi
5:15 PM77 °FSunny.5 mph36%30.04 "Hg10 mi
4:55 PM75 °FSunny.3 mph39%30.03 "Hg10 mi
4:35 PM77 °FSunny.7 mph36%30.03 "Hg10 mi
3:55 PM79 °FSunny.6 mph34%30.04 "Hg10 mi
2:55 PM79 °FPartly sunny.No wind34%30.04 "Hg10 mi
2:35 PM77 °FPartly sunny.6 mph36%30.05 "Hg10 mi
2:15 PM75 °FScattered clouds.7 mph44%30.05 "Hg10 mi
1:55 PM75 °FPartly sunny.5 mph39%30.06 "Hg10 mi
1:35 PM73 °FPartly sunny.No wind41%30.07 "Hg10 mi
1:15 PM75 °FSunny.6 mph41%30.07 "Hg10 mi
12:55 PM73 °FSunny.No wind41%30.08 "Hg10 mi
12:35 PM73 °FSunny.7 mph41%30.08 "Hg10 mi
12:15 PM73 °FSunny.5 mph41%30.09 "Hg10 mi
11:55 AM73 °FSunny.6 mph41%30.09 "Hg10 mi
11:35 AM72 °FSunny.6 mph44%30.09 "Hg10 mi
11:15 AM72 °FSunny.6 mph44%30.09 "Hg10 mi
10:55 AM70 °FSunny.5 mph50%30.10 "Hg10 mi
10:35 AM70 °FSunny.6 mph50%30.10 "Hg10 mi
10:15 AM68 °FSunny.6 mph53%30.10 "Hg10 mi
9:55 AM68 °FPassing clouds.7 mph53%30.10 "Hg10 mi
9:35 AM64 °FScattered clouds.6 mph64%30.10 "Hg10 mi
9:15 AM64 °FScattered clouds.8 mph60%30.09 "Hg10 mi
8:55 AM64 °FScattered clouds.9 mph64%30.09 "Hg10 mi
8:35 AM64 °FSunny.10 mph64%30.09 "Hg10 mi
8:15 AM63 °FSunny.8 mph68%30.08 "Hg10 mi
Weather by CustomWeather, © 2015

See weather overviewHow to use our weather pages